Date,TemperatureHighF,TemperatureAvgF,TemperatureLowF,DewpointHighF,DewpointAvgF,DewpointLowF,HumidityHigh,HumidityAvg,HumidityLow,PressureMaxIn,PressureMinIn,WindSpeedMaxMPH,WindSpeedAvgMPH,GustSpeedMaxMPH,PrecipitationSumIn
2013-1-1,37,33,23,28,20,6,76,60,46,29.89,29.67,24,2,24,0.00
2013-1-2,32,23,16,20,8,2,77,61,49,30.05,29.84,15,2,18,0.00
2013-1-3,26,18,8,10,0,-7,74,57,33,30.09,29.94,7,0,8,0.00
2013-1-4,40,30,17,26,19,8,87,70,52,29.94,29.76,19,2,19,0.00
2013-1-5,43,34,27,26,23,16,82,66,44,30.21,29.79,12,1,13,0.00
2013-1-6,44,34,28,31,28,22,88,76,56,30.18,29.88,12,1,12,0.00
2013-1-7,42,34,27,31,25,19,90,74,44,30.35,29.91,8,1,13,0.00
2013-1-8,47,36,26,31,28,19,93,76,51,30.32,30.21,24,1,24,0.00
2013-1-9,45,37,28,37,31,25,92,78,59,30.34,29.93,19,1,19,0.00
2013-1-10,48,41,34,33,27,24,77,57,41,30.49,29.99,20,3,20,0.00
2013-1-11,42,36,30,38,31,25,96,80,62,30.47,30.17,2,0,3,0.00
2013-1-12,46,43,39,44,41,37,96,94,92,30.19,30.08,2,0,2,0.00
2013-1-13,53,48,43,51,47,42,98,95,91,30.11,29.94,12,1,20,0.00
2013-1-14,61,53,44,54,45,32,97,76,43,30.20,29.80,12,3,13,0.00
2013-1-15,44,41,36,33,29,25,78,63,50,30.26,30.15,3,0,6,0.00
2013-1-16,38,36,33,35,32,25,94,87,60,30.19,29.77,3,0,5,0.00
2013-1-17,44,37,33,35,30,17,95,77,51,30.04,29.79,17,1,17,0.00
2013-1-18,33,25,20,19,4,-6,65,46,30,30.40,30.00,15,2,27,0.00
2013-1-19,49,37,23,34,23,6,78,60,41,30.33,29.85,22,3,23,0.00
2013-1-20,53,42,30,34,28,13,77,59,40,29.87,29.50,26,5,32,0.00
2013-1-21,32,28,23,23,12,4,84,57,39,30.05,29.74,14,1,17,0.00
2013-1-22,29,23,16,23,7,-3,86,61,33,30.03,29.70,10,2,20,0.00
2013-1-23,21,14,10,0,-7,-11,64,46,31,30.09,30.01,14,2,17,0.00
2013-1-24,27,14,6,-5,-9,-12,55,42,27,30.17,30.01,14,2,18,0.00
2013-1-25,29,20,11,12,-5,-12,76,41,24,30.25,30.01,10,1,12,0.00
2013-1-26,31,20,15,12,2,-8,80,56,29,30.19,29.95,10,1,15,0.00
2013-1-27,35,23,15,8,2,-2,63,46,27,30.41,30.18,10,2,13,0.00
2013-1-28,36,28,22,29,15,1,89,64,34,30.40,29.95,5,0,8,0.00
2013-1-29,38,34,30,34,30,26,91,85,77,30.15,29.96,5,0,5,0.00
2013-1-30,61,50,36,58,48,33,100,94,86,30.10,29.41,22,3,27,0.00
2013-1-31,61,48,33,59,38,18,99,72,38,29.54,28.93,27,6,39,0.00